Regional Weather Roundup
Issued by NWS

Home | Current Version | Previous Version | Text Only | Print | Product List | Glossary Off
Versions: 1 2 3 4 5 6 7 8 9 10 11 12 13 14 15 16 17 18 19 20 21 22 23 24 25 26 27 28 29 30 31 32 33 34 35 36 37 38 39 40 41 42 43 44 45 46 47 48 49 50

000
ASUS45 KBOU 251510
RWRCO

WEATHER ROUNDUP FOR COLORADO
NATIONAL WEATHER SERVICE DENVER/BOULDER CO
900 AM MDT WED APR 25 2018

NOTE: "FAIR" INDICATES FEW OR NO CLOUDS BELOW 12000 FEET WITH NO
SIGNIFICANT WEATHER AND/OR OBSTRUCTIONS TO VISIBILITY.

COZ001>005-013-030-031-251600-
...NORTHWEST COLORADO...

CITY           SKY/WX    TMP DP  RH WIND       PRES   REMARKS
CRAIG          FAIR      34  26  72 CALM      30.40F
HAYDEN         FAIR      37  23  56 SE7       30.40F
MEEKER         FAIR      33  23  66 CALM      30.39F
RANGELY        FAIR      40  22  48 NE7       30.39S
RABBIT EARS PA FAIR      27  16  63 S3        30.40S
STEAMBOAT SPGS FAIR      31  22  68 CALM      30.39F
WALDEN         FAIR      30  18  59 S3        30.40F
$$

COZ006>008-011-251600-
...WEST CENTRAL VALLEYS...

CITY           SKY/WX    TMP DP  RH WIND       PRES   REMARKS
GRAND JUNCTION FAIR      50  20  30 E13       30.34S
MONTROSE       FAIR      43  19  38 CALM      30.38F
EAGLE          FAIR      36  22  56 CALM      30.44F
RIFLE          FAIR      41  25  53 VRB3      30.39F
DELTA          FAIR      45  18  35 CALM      30.38S
NUCLA          FAIR      45  16  31 CALM      30.35S
$$

COZ017>023-064>068-251600-
...SOUTHWEST COLORADO...

CITY           SKY/WX    TMP DP  RH WIND       PRES   REMARKS
DURANGO        FAIR      52  17  25 CALM      30.27S
CORTEZ         FAIR      49   9  19 E5        30.26S
PAGOSA SPRINGS FAIR      50   0  12 CALM      30.32S
TELLURIDE      FAIR      40   7  26 CALM      30.37R
WOLF CREEK PAS FAIR      32  -8  18 N7        30.49R WCI  26
$$

COZ009-010-012-014-032>034-037-058>063-251600-
...CENTRAL COLORADO...

CITY           SKY/WX    TMP DP  RH WIND       PRES   REMARKS
ASPEN          FAIR      37  14  38 CALM      30.38S
BUENA VISTA    FAIR      32  25  76 CALM      30.40S
COPPER MTN     NOT AVBL
BERTHOUD PASS  FAIR      19   9  63 NW9       30.43R WCI   9
COTTONWOOD PAS FAIR      37  28  70 CALM      30.39S
GUNNISON       FAIR      36  16  44 NE5       30.41F
GRANBY         FAIR      28  22  77 CALM      30.43F
KREMMLING      FAIR      34  27  75 CALM      30.44F
LEADVILLE      FAIR      28  15  58 W3        30.40S
MONARCH PASS   FAIR      28  -6  22 SW6       30.55R WCI  22
SALIDA         FAIR      35  30  81 CALM      30.47S
SUNLIGHT       FAIR      30  -4  22 SE3       30.46S
WILKERSON PASS FAIR      30  12  47 N9        30.43R WCI  22
$$

COZ069>075-251600-
...SAN LUIS VALLEY/SANGRE DE CRISTO MOUNTAINS...

CITY           SKY/WX    TMP DP  RH WIND       PRES   REMARKS
ALAMOSA        FAIR      40  20  44 CALM      30.36S
DEL NORTE      FAIR      40  11  29 SW3       30.36S
LA VETA PASS   FAIR      30  21  69 SW8       30.49R WCI  23
SAGUACHE       NOT AVBL
$$

COZ035-036-038>040-251600-
...NORTHERN COLORADO FRONT RANGE...

CITY           SKY/WX    TMP DP  RH WIND       PRES   REMARKS
DENVER INTL AP FAIR      40  28  62 SW7       30.34F
AURORA         SUNNY     39  31  73 SW8       30.34F
FRONT RANGE AP SUNNY     39  28  65 S5        30.35F
ERIE MUNI ARPT FAIR      40  33  74 S3        30.40F
BOULDER MUN AP FAIR      41  30  65 S3        30.33F
CENTENNIAL     FAIR      37  32  82 S7        30.34S
BROOMFIELD     SUNNY     39  30  70 VRB5      30.35S
FORT COLLINS   FAIR      40  30  67 SW9       30.34F
LONGMONT       FAIR      43  31  64 SW3       30.36F
$$

COZ041-046-047-076>085-087-088-251600-
...PIKES PEAK/PALMER DIVIDE AND SOUTHERN FOOTHILLS...

CITY           SKY/WX    TMP DP  RH WIND       PRES   REMARKS
COLO. SPRINGS  FAIR      35  30  82 CALM      30.36S
A. F. ACADEMY  FAIR      32  28  85 CALM      30.35S
SCHRIEVER AFB  NOT AVBL
CHEYENNE MTN   PTSUNNY   33  31  91 CALM      30.29S
ELLICOTT         N/A    N/A N/A N/A NW3       30.35S
FALCON         FAIR      35  28  75 SW5       30.36F WCI  31
FORT CARSON    FAIR      37  31  76 CALM      30.35S
LIMON          FAIR      38  27  64 N7        30.34F
MONUMENT HILL  FAIR      30  27  86 SW8       30.35S WCI  23
CANON CITY     FAIR      41  34  75 W8        30.35F
WALSENBURG     NOT AVBL
TRINIDAD       FAIR      39  32  76 W5        30.37F
$$

COZ042>045-048>051-090-091-251600-
...NORTHEAST COLORADO...

CITY           SKY/WX    TMP DP  RH WIND       PRES   REMARKS
GREELEY ARPT   FAIR      42  31  64 SW9       30.35F
AKRON          FAIR      39  30  70 NW7       30.34F
BURLINGTON     FAIR      41  31  67 N13       30.34F
WRAY           FAIR      45  28  53 N8        30.35F
YUMA           FAIR      39  25  56 W3        30.35S
STERLING       NOT AVBL
HOLYOKE        FAIR      46  30  53 NW8       30.34F
FORT MORGAN    FAIR      43  28  54 W8        30.36S
$$

COZ086-089-092>099-251600-
...SOUTHEAST COLORADO...

CITY           SKY/WX    TMP DP  RH WIND       PRES   REMARKS
PUEBLO         PTSUNNY   41  36  82 SW5       30.37F
LA JUNTA       FAIR      43  36  76 W7        30.37F
LAMAR          FAIR      43  32  65 N8        30.36F
SPRINGFIELD      N/A     43  33  68 N20       30.34F
$$



USA.gov is the U.S. government's official web portal to all federal, state and local government web resources and services.